Location: Mahannah Oil Field
(37.4664°N, 96.6003°W)
Time: 14:31:37
(UTC+00:00)

Vanguard 2 Rocket - Pass Details

Date: 27 January 2021
Orbit: 554 x 3325 km, 32.9° (Epoch: 06 March)

Event Time Altitude Azimuth Distance (km) Brightness Sun altitude
Rises 21:00:23 0° 247° (WSW) 7,105 12.4 25.2°
Reaches altitude 10° 21:05:36 10° 245° (WSW) 5,845 12.3 24.5°
Maximum altitude 21:22:02 64° 170° (S) 2,252 9.5 22.4°
Drops below altitude 10° 21:31:28 10° 91° (E) 3,527 9.6 21.1°
Sets 21:33:50 0° 88° (E) 4,223 9.9 20.8°
